Location: Peterborough
(44.3091°N, 78.3197°W)
Time: 07:38:53
(UTC-04:00)

Vanguard 3 - Pass Details

Date: 28 February 2024
Orbit: 510 x 3234 km, 33.3° (Epoch: 24 April)

Event Time Altitude Azimuth Distance (km) Brightness Sun altitude
Rises 00:25:45 0° 273° (W) 7,203 12.0 -53.8°
Reaches altitude 10° 00:31:01 10° 268° (W) 6,120 11.5 -53.8°
Enters shadow 00:34:50 18° 263° (W) 5,333 11.1 -53.8°
